Home   Weather   Charlotte Amalie   Past weeks

Flag for US Virgin Islands Past Weather in Charlotte Amalie, US Virgin Islands — Yesterday and Last 2 Weeks

Now
74 °F

Passing clouds.


Feels Like: 74 °F
Forecast: 70 / 79 °F
Wind: 5 mph from Northeast

Location: Cyril E. King International Airport

Current Time: Jan 21, 2017 at 12:35:58 am

Latest Report: Jan 20, 2017 at 11:53 pm


Visibility: 10 mi

Pressure: 30.02 "Hg

Humidity: 82%

Dew Point: 68 °F

Location of Charlotte AmalieLocation

Past Weather in Charlotte Amalie — Graph

°F

Charlotte Amalie Temperature Yesterday

Maximum temperature yesterday: 82 °F (at 1:53 pm)
Minimum temperature yesterday: 66 °F (at 3:53 am)
Average temperature yesterday: 74 °F

High & Low Weather Summary for the Past Weeks

 TemperatureHumidityPressure
High84 °F (Jan 6, 11:53 am)96% (Jan 17, 12:41 am)30.13 "Hg (Jan 17, 12:41 am)
Low66 °F (Jan 20, 3:53 am)45% (Jan 12, 11:53 am)29.93 "Hg (Jan 10, 3:53 pm)
Average77 °F71%30.02 "Hg
* Reported Jan 5 10:53 pm — Jan 20 10:53 pm, Charlotte Amalie, Weather by CustomWeather, © 2017

Note: Actual official high and low records may vary slightly from our data, if they occured in-between our weather recording intervals... More about our weather records

Advertising

Charlotte Amalie Weather History for the Previous 24 Hours

Scroll right to see more
 ConditionsComfort  
Time TempWeatherWind HumidityBarometerVisibility
10:53 pm
Fri, Jan 20
75 °FMostly cloudy.6 mph79%30.01 "Hg10 mi
9:53 pm76 °FPassing clouds.3 mph74%30.01 "Hg10 mi
8:53 pm76 °FOvercast.13 mph77%30.00 "Hg10 mi
7:53 pm76 °FOvercast.7 mph77%29.98 "Hg10 mi
6:53 pm75 °FPassing clouds.12 mph79%29.96 "Hg10 mi
5:53 pm77 °FSunny.9 mph69%29.96 "Hg10 mi
4:53 pm80 °FSunny.12 mph62%29.96 "Hg10 mi
3:53 pm82 °FSunny.10 mph58%29.94 "Hg10 mi
2:53 pm82 °FPassing clouds.9 mph56%29.94 "Hg10 mi
1:53 pm82 °FPassing clouds.5 mph55%29.95 "Hg10 mi
12:53 pm80 °FSunny.6 mph62%29.98 "Hg10 mi
11:53 am79 °FPassing clouds.6 mph62%30.01 "Hg10 mi
10:53 am78 °FSunny.6 mph64%30.02 "Hg10 mi
9:53 am78 °FPassing clouds.No wind62%30.02 "Hg10 mi
8:53 am76 °FSunny.No wind67%30.01 "Hg10 mi
7:53 am71 °FSunny.No wind84%29.98 "Hg10 mi
6:53 am66 °FClear.No wind90%29.96 "Hg10 mi
5:53 am66 °FClear.No wind90%29.95 "Hg10 mi
4:53 am67 °FClear.No wind87%29.95 "Hg10 mi
3:53 am66 °FPassing clouds.No wind90%29.95 "Hg10 mi
2:53 am67 °FClear.No wind90%29.95 "Hg10 mi
1:53 am69 °FClear.No wind84%29.97 "Hg10 mi
12:53 am69 °FPassing clouds.No wind84%29.98 "Hg10 mi
Weather by CustomWeather, © 2017

See weather overviewHow to use our weather pages